Regional Weather Roundup
Issued by NWS

Home | Current Version | Previous Version | Text Only | Print | Product List | Glossary On
Versions: 1 2 3 4 5 6 7 8 9 10 11 12 13 14 15 16 17 18 19 20 21 22 23 24 25 26 27 28 29 30 31 32 33 34 35 36 37 38 39 40 41 42 43 44 45 46 47 48 49 50
000
ASUS44 KLUB 241410
RWRTX
WEST TEXAS WEATHER ROUNDUP
NATIONAL WEATHER SERVICE LUBBOCK TX
900 AM CDT FRI OCT 24 2014

NOTE: "FAIR" INDICATES FEW OR NO CLOUDS BELOW 12,000 FEET WITH NO
SIGNIFICANT WEATHER AND/OR OBSTRUCTIONS TO VISIBILITY.

TXZ004-006>008-010-012-014-016-OKZ002-241500-
TEXAS PANHANDLE/OKLAHOMA PANHANDLE

CITY           SKY/WX    TMP DP  RH WIND       PRES   REMARKS
AMARILLO       SUNNY     55  51  86 SW5       30.15R
BORGER         MOSUNNY   50  48  93 W3        30.13R FOG
CANADIAN       FOG       55  55  99 CALM      30.10R VSB 1/2
DALHART        CLEAR     51  44  77 W5        30.16R
DUMAS          FAIR      48  46  90 W6        30.14R
GUYMON         SUNNY     54  50  86 SW3       30.10R
HEREFORD       SUNNY     51  49  96 CALM      30.17R
PAMPA          SUNNY     56  53  90 W5        30.13R
PERRYTON       SUNNY     54  53  96 SW6       30.11R
$$

TXZ026-029-035-045-048-241500-
SOUTHERN PANHANDLE/SOUTH PLAINS/ROLLING PLAINS

CITY           SKY/WX    TMP DP  RH WIND       PRES   REMARKS
CHILDRESS      SUNNY     59  58  96 W6        30.11R FOG
SEMINOLE       SUNNY     57  56  99 W6        30.20R FOG
LUBBOCK        SUNNY     56  54  93 SW3       30.16S
PLAINVIEW      SUNNY     55  54  95 W3        30.15R
SNYDER         DRZL/FOG  58  57  99 SW8       30.17R VSB<1/4
$$

TXZ052-054-060>062-072-078-127-140-154-169-241500-
PERMIAN BASIN/CONCHO VALLEY/BIG COUNTRY/EDWARDS PLATEAU

CITY           SKY/WX    TMP DP  RH WIND       PRES   REMARKS
ABILENE        SUNNY     63  60  90 SW7       30.16R FOG
BIG SPRING     CLOUDY    59  58  94 S6        30.20R VSB<1/4
BRADY          SUNNY     63  61  94 SW3       30.17R
BROWNWOOD      SUNNY     63  59  88 CALM      30.18R FOG
JUNCTION       SUNNY     55  52  89 W3        30.18R
MIDLAND        MOSUNNY   59  58  96 S3        30.18R FOG
ODESSA         SUNNY     62  60  93 S6        30.19R FOG
SAN ANGELO     SUNNY     58  57  97 S5        30.17R FOG
SONORA         SUNNY     52  52 100 CALM      30.23R FOG
SWEETWATER     SUNNY     64  63  97 S9        30.20R
WINK           CLOUDY    59  32  36 CALM      30.17R
$$

TXZ055-058-074-075-080-082-241500-
FAR WEST/SOUTHWEST MOUNTAINS/TRANS PECOS

CITY           SKY/WX    TMP DP  RH WIND       PRES   REMARKS
ALPINE         SUNNY     60  55  84 SW6       30.32R
DRYDEN           N/A     61  60  97 W3        30.16R
EL PASO        CLEAR     55  51  86 NE3       30.23R
FORT STOCKTON  SUNNY     64  57  78 SW10      30.18R
GUADALUPE PASS CLEAR     57  47  69 SW9       30.32R
MARFA          SUNNY     52  50  93 N3        30.31R
PECOS          FOG       55  55  97 NW3       30.18R VSB<1/4
PRESIDIO       FAIR      63  57  80 CALM      30.21R
$$

TXZ014-016-019-021>030-083-241500
TEXAS TECH WEST TEXAS MESONET/TEXAS PANHANDLE/NORTHERN SOUTH PLAINS

CITY           SKY/WX    TMP DP  RH WIND       PRES   REMARKS
ABERNATHY 5ENE   N/A     55  54  96 SW5       30.18R
AMARILLO 9NNE    N/A     51  49  95 S1        30.15R
AMARILLO 7SSE    N/A     53  50  91 W6        30.17R
AMHERST 1NE      N/A     58  54  87 W6        30.18R
BOOTLEG 11WNW    N/A     56  46  70 W7        30.20R
CANADIAN 6E      N/A     54  54  99 CALM      30.09R
CAPROCK CYN SP   N/A     68  56  64 W15       30.12R
CHILDRESS 2NNE   N/A     60  59  96 SW7       30.10R
CLARENDON 2WSW   N/A     58  56  94 SW7       30.12S
CLAUDE 12SW      N/A     60  53  77 SW6       30.15R
DIMMITT 2NE      N/A     56  51  85 SW8       30.18R
FLOYDADA 2NNE    N/A     54  54  98 SW3       30.16R
FRIONA 2NE       N/A     52  50  92 SW3       30.19R
GOODLETT 3W      N/A     60  58  93 SW9       30.08R
HART 3N          N/A     53  51  93 W5        30.17R
HEREFORD 2NW     N/A     51  48  87 SW7       30.17R
MCLEAN 1E        N/A     56  55  97 SW6       30.11R
MEMPHIS 1NE      N/A     57  56  98 CALM      30.11R
MULESHOE 2SSW    N/A     49  49  97 W5        30.18R
OLTON 6S         N/A     54  51  90 W6        30.17R
PALO DURO SP     N/A     58  52  79 W5        30.17R
PAMPA 2E         N/A     56  54  92 SW2       30.13R
PLAINVIEW 1S     N/A     57  54  89 SW3       30.16R
SILVERTON 7ESE   N/A     56  53  87 W8        30.15R
TULIA 2ENE       N/A     58  53  85 W10       30.16R
TURKEY 2WSW      N/A     60  56  87 S3        30.12R
UMBARGER 3NNE    N/A     52  49  90 SW7       30.17R
$$

TXZ033>036-039>041-045>048-241500
TEXAS TECH WEST TEXAS MESONET/SOUTH PLAINS

CITY           SKY/WX    TMP DP  RH WIND       PRES   REMARKS
AIKEN 3WSW       N/A     53  52  97 SW2       30.18R
ANDREWS 2NE      N/A     62  57  85 S5        30.19R
ANTON 6SSW       N/A     57  54  91 CALM      30.18R
BROWNFIELD 2S    N/A     57  55  94 W6        30.18R
DENVR CTY 7WNW   N/A     56  53  92 SW3       30.20R
GAIL 2ESE        N/A     59  58  95 S2        30.17R
LAMESA 2SE       N/A     54  53  98 SW3       30.19R
LEVELLAND 4S     N/A     56  54  91 SW5       30.18R
LUBBOCK 3WNW     N/A     56  55  95 CALM      30.18R
MORTON 1ENE      N/A     56  53  89 W3        30.18R
ODONNELL 1N      N/A     55  54  96 SW3       30.18R
PLAINS 3N        N/A     54  52  91 W5        30.20R
RALLS 1SE        N/A     55  55  99 W2        30.18R
REESE CENTER     N/A     56  54  93 SW3       30.17S
SEMINOLE 2NNE    N/A     56  55  95 SW5       30.19R
SLATON 2NE       N/A     55  55  98 SW3       30.17R
SNYDER 3E        N/A     58  58  98 S7        30.16S
SUNDOWN 8SW      N/A     56  53  91 W7        30.18R
TAHOKA 3NNE      N/A     57  57  98 SW7       30.17R
WOLFFORTH 6SSW   N/A     58  57  98 SW3       30.18R
$$

TXZ031-032-036>038-042>044-241500-
TEXAS TECH WEST TEXAS MESONET/ROLLING PLAINS

CITY           SKY/WX    TMP DP  RH WIND       PRES   REMARKS
ASPERMONT 3NE    N/A     64  61  91 S6        30.14R
FLUVANNA 3WNW    N/A     59  57  94 S8        30.17R
GRAHAM 5SSW      N/A     57  55  94 W8        30.17R
GUTHRIE 10WSW    N/A     62  58  89 S7        30.12R
HASKELL 1NW      N/A     62  59  88 S8        30.13R
JAYTON 1SSE      N/A     58  57  97 SW5       30.14R
KNOX CITY 3NW    N/A     63  59  86 SW7       30.13R
LK A HENRY 1NW   N/A     60  59  96 SW5       30.15R
NORTHFIELD 1S    N/A     61  60  96 S5        30.11S
ODELL 4ENE       N/A     64  62  91 S6        30.10R
PADUCAH 10SW     N/A     63  61  93 SW2       30.12R
POST 1NE         N/A     63  58  85 S2        30.16R
RRING SPRGS 3N   N/A     60  57  92 SW10      30.13R
SEYMOUR 3NW      N/A     64  60  86 S6        30.11R
SPUR 1W          N/A     59  58  96 W3        30.14R
WEINERT 2NNE     N/A     64  60  87 SW8       30.14R
WHITE RVR 6NE    N/A     60  57  89 SW5       30.15R
$$

TXZ052-054-060>062-072-078-127-140-154-169-241500-
TEXAS TECH WEST TEXAS MESONET/PERMIAN BASIN/
CONCHO VALLEY/BIG COUNTRY/EDWARDS PLATEAU

CITY           SKY/WX    TMP DP  RH WIND       PRES   REMARKS
COYANOSA 2N      N/A     60  56  88 SW3       30.18R
JUNCTION 1SSW    N/A     55  55  99 S1        30.20R
MERTZON 3NNE     N/A     62  59  89 S6        30.19R
SAN ANGELO 7NW   N/A     57  55  94 CALM      30.18R
STRLNG CT 4WSW   N/A     58  57  98 N1        30.19R
ST LAWRNCE 5SW   N/A     55  55  98 S3        30.18R
SWEETWATR 11SW   N/A     62  61  96 S5        30.19R
WALL 1E          N/A     56  54  93 CALM      30.18R
$$

TXZ055-058-074-075-080-082-241500-
TEXAS TECH WEST TEXAS MESONET/FAR WEST/SOUTHWEST MOUNTAINS/TRANS PECOS

CITY           SKY/WX    TMP DP  RH WIND       PRES   REMARKS
PRSMN GAP BBNP   N/A     60  60  99 SW2       30.22R
GUADLPE MTN NP   N/A     64  42  43 NW9       30.31S
$$



USA.gov is the U.S. government's official web portal to all federal, state and local government web resources and services.